User: anonymous   Login
Location: Albany
(35.0000°S, 118.0000°E)
Time: 07:40:43
(UTC-05:00)
Language:

Radarsat Rocket - Orbit

View from above orbital plane
View from above orbital plane
View from above satellite
View from above satellite

Ground track
Ground track

The orbit data is extracted from the following two-line orbital elements,

1 23711U 95059B   16344.48485964 -.00000045  00000-0 -18919-5 0  9992
2 23711 100.5441 329.5734 0368303  27.7424 120.8263 13.12690705 10909
Epoch (UTC): 09 December 2016 11:38:11
Eccentricity: 0.0368303
inclination: 100.5441°
perigee height: 933 km
apogee height: 1492 km
right ascension of ascending node: 329.5734°
argument of perigee: 27.7424°
revolutions per day: 13.12690705
mean anomaly at epoch: 120.8263°
orbit number at epoch: 1090

The dashed part of the orbit path shows where the satellite is in the earth's shadow,  

DLR